FW9098 Weather Reports


time (UTC)temp
C
wind
direction
speed
KPH
gust
KPH
rain 1hr
cm
rain 24hr
cm
rain mn
cm
humidity
%
barometer
mb
20260507061036 14 252 14.5 30.6 0.00 0.00 0.00 61 1011.2
20260507060536 14 316 9.7 29.0 0.00 0.00 0.00 61 1011.2
20260507060054 14 335 12.9 29.0 0.00 0.00 0.00 61 1011.0
20260507055538 14 320 11.3 29.0 0.00 0.00 0.00 61 1010.8
20260507055037 14 255 12.9 29.0 0.00 0.00 0.00 61 1010.9
20260507054558 14 259 9.7 27.4 0.00 0.00 0.00 61 1010.9
20260507054036 14 269 12.9 27.4 0.00 0.00 0.00 62 1010.7
20260507053536 14 259 16.1 30.6 0.00 0.00 0.00 62 1010.6
20260507053049 14 288 12.9 30.6 0.00 0.00 0.00 62 1010.7
20260507052536 14 282 14.5 29.0 0.00 0.00 0.00 62 1010.6
20260507052036 14 338 12.9 24.1 0.00 0.00 0.00 62 1010.5
20260507051549 14 208 9.7 29.0 0.00 0.00 0.00 62 1010.5
20260507051035 14 246 12.9 29.0 0.00 0.00 0.00 62 1010.5
20260507050535 14 313 12.9 35.4 0.00 0.00 0.00 62 1010.5
20260507050047 14 318 14.5 35.4 0.00 0.00 0.00 62 1010.3
20260507045536 14 290 11.3 27.4 0.00 0.00 0.00 62 1010.3
20260507045036 14 246 12.9 29.0 0.00 0.00 0.00 62 1010.5
20260507044546 14 339 16.1 33.8 0.00 0.00 0.00 62 1010.1
20260507044038 14 351 16.1 33.8 0.00 0.00 0.00 63 1010.0
20260507043536 14 273 14.5 27.4 0.00 0.00 0.00 63 1010.1
20260507043047 14 276 12.9 29.0 0.00 0.00 0.00 63 1009.9
20260507042536 13 332 12.9 29.0 0.00 0.00 0.00 63 1009.8
20260507042035 14 316 12.9 29.0 0.00 0.00 0.00 63 1009.8
20260507041555 14 297 12.9 22.5 0.00 0.00 0.00 63 1009.7
20260507041036 13 288 9.7 22.5 0.00 0.00 0.00 63 1009.6
20260507040537 13 313 9.7 22.5 0.00 0.00 0.00 63 1009.6
20260507040058 13 268 11.3 25.7 0.00 0.00 0.00 63 1009.5
20260507035536 14 325 8.0 25.7 0.00 0.00 0.00 63 1009.5
20260507035036 14 323 12.9 25.7 0.00 0.00 0.00 63 1009.6
20260507034555 14 278 12.9 29.0 0.00 0.00 0.00 63 1009.7
20260507034035 14 298 12.9 29.0 0.00 0.00 0.00 63 1009.6
20260507033535 14 273 9.7 25.7 0.00 0.00 0.00 63 1009.5
20260507033047 14 279 11.3 27.4 0.00 0.00 0.00 63 1009.7
20260507032539 14 293 12.9 27.4 0.00 0.00 0.00 63 1009.5
20260507032036 14 305 14.5 27.4 0.00 0.00 0.00 63 1009.5
20260507031543 14 329 12.9 24.1 0.00 0.00 0.00 63 1009.5
20260507031035 14 317 11.3 22.5 0.00 0.00 0.00 64 1009.5
20260507030537 14 342 14.5 22.5 0.00 0.00 0.00 64 1009.4
20260507030053 14 275 9.7 25.7 0.00 0.00 0.00 64 1009.4
20260507025537 14 313 14.5 25.7 0.00 0.00 0.00 64 1009.3
20260507025036 14 267 12.9 25.7 0.00 0.00 0.00 64 1009.2
20260507024551 14 328 12.9 25.7 0.00 0.00 0.00 64 1009.3
20260507024037 14 292 9.7 24.1 0.00 0.00 0.00 65 1009.2
20260507023535 14 303 12.9 24.1 0.00 0.00 0.00 65 1009.1
20260507023047 15 297 11.3 24.1 0.00 0.00 0.00 65 1009.3
20260507022535 15 341 12.9 24.1 0.00 0.00 0.00 65 1009.3
20260507022037 15 275 11.3 22.5 0.00 0.00 0.00 65 1009.2
20260507021548 15 292 12.9 24.1 0.00 0.00 0.00 65 1009.3
20260507021037 15 311 12.9 24.1 0.00 0.00 0.00 65 1009.3
20260507020536 15 324 12.9 24.1 0.00 0.00 0.00 65 1009.2
20260507020101 15 304 9.7 25.7 0.00 0.00 0.00 65 1009.1
20260507015536 15 308 14.5 29.0 0.00 0.00 0.00 65 1008.9
20260507015036 15 360 12.9 29.0 0.00 0.00 0.00 65 1009.0
20260507014601 15 313 14.5 29.0 0.00 0.00 0.00 65 1008.9
20260507014036 15 281 12.9 25.7 0.00 0.00 0.00 65 1009.0
20260507013538 15 286 12.9 25.7 0.00 0.00 0.00 65 1008.9
20260507013047 15 328 9.7 29.0 0.00 0.00 0.00 65 1009.0
20260507012535 15 283 8.0 29.0 0.00 0.00 0.00 65 1008.9
20260507012035 15 323 9.7 24.1 0.00 0.00 0.00 65 1008.9
20260507011556 15 268 9.7 29.0 0.00 0.00 0.00 65 1008.8
20260507011036 15 291 12.9 29.0 0.00 0.00 0.00 65 1008.7
20260507010536 15 338 11.3 27.4 0.00 0.00 0.00 65 1008.7
20260507010046 15 321 16.1 27.4 0.00 0.00 0.00 65 1008.7
20260507005536 15 244 9.7 24.1 0.00 0.00 0.00 65 1008.8
20260507005039 15 270 12.9 30.6 0.00 0.00 0.00 64 1008.7
20260507004551 15 232 11.3 30.6 0.00 0.00 0.00 64 1008.7
20260507004035 15 280 12.9 33.8 0.00 0.00 0.00 63 1008.7
20260507003539 16 273 16.1 33.8 0.00 0.00 0.00 63 1008.6
20260507003043 16 248 12.9 25.7 0.00 0.00 0.00 63 1008.5
20260507002535 16 5 11.3 22.5 0.00 0.00 0.00 63 1008.5
20260507002035 16 355 9.7 22.5 0.00 0.00 0.00 63 1008.5
20260507001612 16 340 11.3 22.5 0.00 0.00 0.00 63 1008.3
20260507001034 16 317 8.0 22.5 0.00 0.00 0.00 63 1008.5
20260507000539 16 226 6.4 22.5 0.00 0.00 0.00 63 1008.3
20260507000100 16 291 9.7 24.1 0.00 0.00 0.00 63 1008.3
20260506235536 16 288 6.4 24.1 0.00 0.00 0.00 63 1008.2
20260506235036 16 290 12.9 24.1 0.00 0.00 0.00 63 1008.1
20260506234558 16 0 8.0 29.0 0.00 0.00 0.00 64 1008.3
20260506234036 16 262 14.5 29.0 0.00 0.00 0.00 65 1008.2
20260506233537 16 290 11.3 24.1 0.00 0.00 0.00 66 1008.2
20260506233046 16 237 9.7 27.4 0.00 0.00 0.00 67 1008.3
20260506232536 16 260 11.3 29.0 0.00 0.00 0.00 68 1008.1
20260506232035 16 300 9.7 29.0 0.00 0.00 0.00 68 1008.1
20260506231552 16 223 14.5 29.0 0.00 0.00 0.00 68 1008.0
20260506231036 16 298 11.3 25.7 0.00 0.00 0.00 68 1008.0
20260506230539 16 313 9.7 30.6 0.00 0.00 0.00 67 1008.0
20260506230054 16 325 11.3 30.6 0.00 0.00 0.00 66 1008.0
20260506225535 16 239 12.9 29.0 0.00 0.00 0.00 66 1007.9
20260506225036 16 278 9.7 22.5 0.00 0.00 0.00 64 1007.7
20260506224552 17 315 11.3 22.5 0.00 0.00 0.00 63 1007.4
20260506224035 17 267 11.3 25.7 0.00 0.00 0.00 62 1007.3
20260506223535 17 290 11.3 25.7 0.00 0.00 0.00 61 1007.2
20260506223053 17 259 8.0 20.9 0.00 0.00 0.00 61 1007.0
20260506222536 17 214 11.3 20.9 0.00 0.00 0.00 61 1007.0
20260506222036 17 240 8.0 16.1 0.00 0.00 0.00 61 1007.0
20260506221553 17 209 4.8 14.5 0.00 0.00 0.00 61 1006.9
20260506221035 17 302 3.2 12.9 0.00 0.00 0.00 62 1006.8
20260506220536 17 302 4.8 12.9 0.00 0.00 0.00 62 1006.6
20260506220107 17 250 4.8 12.9 0.00 0.00 0.00 62 1006.6
20260506215537 17 220 3.2 9.7 0.00 0.00 0.00 63 1006.4
20260506215037 17 209 3.2 11.3 0.00 0.00 0.00 63 1006.3
20260506214550 17 171 3.2 11.3 0.00 0.00 0.00 62 1006.1
20260506214036 17 161 1.6 11.3 0.00 0.00 0.00 62 1005.8
20260506213536 17 0 1.6 9.7 0.00 0.00 0.00 62 1005.7
20260506213057 17 124 0.0 9.7 0.00 0.00 0.00 62 1005.5
20260506212536 17 146 3.2 11.3 0.00 0.00 0.00 62 1005.5
20260506212036 17 145 3.2 11.3 0.00 0.00 0.00 61 1005.4
20260506211550 17 156 3.2 11.3 0.00 0.00 0.00 62 1005.3
20260506211036 17 165 3.2 12.9 0.00 0.00 0.00 62 1005.2
20260506210538 17 114 3.2 16.1 0.00 0.00 0.00 61 1005.2
20260506210057 17 113 1.6 16.1 0.00 0.00 0.00 61 1005.1
20260506205535 18 116 4.8 16.1 0.00 0.00 0.00 61 1005.1
20260506205035 18 112 3.2 17.7 0.00 0.00 0.00 61 1005.1
20260506204550 18 119 4.8 17.7 0.00 0.00 0.00 60 1005.1
20260506204035 18 142 8.0 17.7 0.00 0.00 0.00 60 1005.1
20260506203535 18 113 4.8 17.7 0.00 0.00 0.00 60 1005.1
20260506203137 18 117 3.2 19.3 0.00 0.00 0.00 60 1005.0
20260506202535 18 126 6.4 19.3 0.00 0.00 0.00 59 1005.0
20260506202035 18 139 6.4 19.3 0.00 0.00 0.00 59 1005.0
20260506201548 18 140 8.0 19.3 0.00 0.00 0.00 59 1004.9
20260506201035 18 119 4.8 20.9 0.00 0.00 0.00 59 1004.8
20260506200537 18 126 6.4 20.9 0.00 0.00 0.00 58 1004.8
20260506200052 18 148 6.4 20.9 0.00 0.00 0.00 58 1004.9
20260506195536 18 117 4.8 19.3 0.00 0.00 0.00 58 1004.7
20260506195036 18 123 8.0 19.3 0.00 0.00 0.00 58 1004.7
20260506194549 18 142 4.8 20.9 0.00 0.00 0.00 58 1004.7
20260506194035 18 123 8.0 20.9 0.00 0.00 0.00 57 1004.5
20260506193534 18 127 9.7 24.1 0.00 0.00 0.00 57 1004.5
20260506193047 19 119 8.0 24.1 0.00 0.00 0.00 57 1004.5
20260506192534 19 159 6.4 19.3 0.00 0.00 0.00 57 1004.5
20260506192034 19 117 6.4 24.1 0.00 0.00 0.00 57 1004.4
20260506191551 19 144 6.4 24.1 0.00 0.00 0.00 56 1004.4
20260506191035 19 118 8.0 25.7 0.00 0.00 0.00 56 1004.4
20260506190535 19 127 8.0 25.7 0.00 0.00 0.00 56 1004.2
20260506190050 19 135 8.0 25.7 0.00 0.00 0.00 56 1004.0
20260506185534 19 178 9.7 25.7 0.00 0.00 0.00 55 1004.0
20260506185034 20 115 9.7 25.7 0.00 0.00 0.00 55 1004.0
20260506184559 20 148 9.7 25.7 0.00 0.00 0.00 55 1004.0
20260506184034 20 134 9.7 25.7 0.00 0.00 0.00 54 1004.0
20260506183534 20 121 9.7 25.7 0.00 0.00 0.00 54 1003.9
20260506183053 20 154 8.0 20.9 0.00 0.00 0.00 54 1003.9
20260506182534 20 135 6.4 24.1 0.00 0.00 0.00 54 1003.8
20260506182034 20 80 9.7 24.1 0.00 0.00 0.00 53 1003.8
20260506181545 20 123 8.0 24.1 0.00 0.00 0.00 53 1003.7
20260506181037 20 131 6.4 19.3 0.00 0.00 0.00 53 1003.7
20260506180533 20 141 6.4 20.9 0.00 0.00 0.00 52 1003.6
20260506180048 20 154 8.0 20.9 0.00 0.00 0.00 52 1003.5
20260506175533 21 139 8.0 19.3 0.00 0.00 0.00 51 1003.5
20260506175034 21 165 8.0 20.9 0.00 0.00 0.00 51 1003.6
20260506174606 21 133 8.0 20.9 0.00 0.00 0.00 51 1003.5
20260506174035 21 123 8.0 24.1 0.00 0.00 0.00 50 1003.5
20260506173536 21 124 8.0 24.1 0.00 0.00 0.00 50 1003.5
20260506173054 21 137 11.3 25.7 0.00 0.00 0.00 50 1003.5
20260506172536 21 156 8.0 27.4 0.00 0.00 0.00 50 1003.5
20260506172039 21 168 11.3 27.4 0.00 0.00 0.00 50 1003.6
20260506171550 22 164 9.7 27.4 0.00 0.00 0.00 49 1003.5
20260506171036 22 158 8.0 33.8 0.00 0.00 0.00 49 1003.5
20260506170535 22 156 12.9 41.8 0.00 0.00 0.00 48 1003.5
20260506170053 22 144 8.0 41.8 0.00 0.00 0.00 48 1003.6
20260506165537 22 143 9.7 22.5 0.00 0.00 0.00 47 1003.5
20260506165036 22 123 6.4 25.7 0.00 0.00 0.00 47 1003.4
20260506164552 23 360 9.7 25.7 0.00 0.00 0.00 45 1003.5
20260506164036 23 156 9.7 30.6 0.00 0.00 0.00 45 1003.6
20260506163536 23 148 9.7 33.8 0.00 0.00 0.00 45 1003.6
20260506163102 23 142 11.3 33.8 0.00 0.00 0.00 45 1003.6
20260506162536 23 360 11.3 37.0 0.00 0.00 0.00 45 1003.6
20260506162037 23 157 16.1 37.0 0.00 0.00 0.00 45 1003.7
20260506161547 23 123 14.5 35.4 0.00 0.00 0.00 44 1003.7
20260506161039 23 125 11.3 33.8 0.00 0.00 0.00 46 1003.7
20260506160536 23 112 11.3 29.0 0.00 0.00 0.00 46 1003.9
20260506160050 23 120 11.3 30.6 0.00 0.00 0.00 45 1003.9
20260506155536 23 190 12.9 30.6 0.00 0.00 0.00 46 1003.8
20260506155038 23 103 12.9 35.4 0.00 0.00 0.00 45 1003.8
20260506154552 23 110 9.7 35.4 0.00 0.00 0.00 46 1003.7
20260506154039 23 155 16.1 35.4 0.00 0.00 0.00 45 1003.7
20260506153535 23 153 9.7 29.0 0.00 0.00 0.00 45 1003.8
20260506153109 24 138 14.5 33.8 0.00 0.00 0.00 44 1003.8
20260506152537 24 155 9.7 33.8 0.00 0.00 0.00 44 1003.9
20260506152036 23 138 14.5 32.2 0.00 0.00 0.00 43 1003.9
20260506151546 24 157 8.0 33.8 0.00 0.00 0.00 43 1003.8
20260506151035 24 125 12.9 33.8 0.00 0.00 0.00 42 1003.8
20260506150536 24 150 16.1 35.4 0.00 0.00 0.00 42 1003.8
20260506150048 24 99 14.5 46.7 0.00 0.00 0.00 42 1003.8
20260506145535 24 103 17.7 46.7 0.00 0.00 0.00 41 1003.8
20260506145036 24 133 17.7 46.7 0.00 0.00 0.00 41 1003.9
20260506144547 24 132 11.3 38.6 0.00 0.00 0.00 42 1003.7
20260506144035 24 132 12.9 38.6 0.00 0.00 0.00 42 1003.9
20260506143535 24 144 17.7 41.8 0.00 0.00 0.00 40 1003.8
20260506143045 25 127 9.7 41.8 0.00 0.00 0.00 40 1003.8
20260506142538 25 155 12.9 38.6 0.00 0.00 0.00 39 1003.8
20260506142035 25 128 14.5 38.6 0.00 0.00 0.00 38 1003.9
20260506141549 25 96 14.5 37.0 0.00 0.00 0.00 38 1003.9
20260506141035 26 112 8.0 35.4 0.00 0.00 0.00 38 1003.9
20260506140539 26 123 8.0 38.6 0.00 0.00 0.00 39 1003.9
20260506140051 25 116 14.5 37.0 0.00 0.00 0.00 39 1003.9
20260506135536 25 102 16.1 37.0 0.00 0.00 0.00 39 1004.0
20260506135035 26 147 14.5 37.0 0.00 0.00 0.00 38 1004.0
20260506134547 25 167 14.5 37.0 0.00 0.00 0.00 39 1004.0
20260506134036 26 104 14.5 33.8 0.00 0.00 0.00 38 1004.2
20260506133536 25 163 11.3 33.8 0.00 0.00 0.00 38 1004.2
20260506133050 26 153 11.3 35.4 0.00 0.00 0.00 37 1004.1
20260506132535 26 130 8.0 35.4 0.00 0.00 0.00 37 1004.3
20260506132035 26 122 11.3 33.8 0.00 0.00 0.00 37 1004.3
20260506131546 25 115 12.9 33.8 0.00 0.00 0.00 38 1004.5
20260506131035 25 163 8.0 32.2 0.00 0.00 0.00 41 1004.5
20260506130536 24 99 11.3 37.0 0.00 0.00 0.00 41 1004.5
20260506130047 24 116 17.7 37.0 0.00 0.00 0.00 39 1004.6
20260506125536 24 157 12.9 35.4 0.00 0.00 0.00 39 1004.9
20260506125036 24 98 11.3 30.6 0.00 0.00 0.00 39 1004.9
20260506124547 25 129 4.8 20.9 0.00 0.00 0.00 40 1004.9
20260506124036 24 150 6.4 27.4 0.00 0.00 0.00 40 1004.9
20260506123536 24 108 9.7 30.6 0.00 0.00 0.00 39 1005.0
20260506123050 24 164 11.3 30.6 0.00 0.00 0.00 39 1005.0
20260506122535 24 140 9.7 27.4 0.00 0.00 0.00 40 1005.2
20260506122035 24 122 8.0 27.4 0.00 0.00 0.00 39 1005.2
20260506121602 24 92 11.3 27.4 0.00 0.00 0.00 39 1005.4
20260506121036 24 116 8.0 22.5 0.00 0.00 0.00 40 1005.3
20260506120536 24 143 8.0 25.7 0.00 0.00 0.00 39 1005.4
20260506120048 24 94 9.7 25.7 0.00 0.00 0.00 39 1005.5
20260506115534 23 134 12.9 25.7 0.00 0.00 0.00 40 1005.6
20260506115035 23 90 6.4 22.5 0.00 0.00 0.00 43 1005.6
20260506114546 23 121 9.7 22.5 0.00 0.00 0.00 44 1005.7
20260506114036 23 130 12.9 22.5 0.00 0.00 0.00 43 1005.7
20260506113534 24 145 11.3 35.4 0.00 0.00 0.00 43 1005.7
20260506113045 23 82 11.3 35.4 0.00 0.00 0.00 43 1005.9
20260506112537 24 112 11.3 35.4 0.00 0.00 0.00 42 1006.1
20260506112038 25 95 9.7 32.2 0.00 0.00 0.00 43 1006.1
20260506111543 24 179 9.7 32.2 0.00 0.00 0.00 44 1006.0
20260506111036 24 126 11.3 22.5 0.00 0.00 0.00 42 1006.1
20260506110539 25 165 4.8 25.7 0.00 0.00 0.00 44 1006.2
20260506110056 24 137 6.4 29.0 0.00 0.00 0.00 46 1006.4
20260506105536 24 118 11.3 29.0 0.00 0.00 0.00 45 1006.6
20260506105036 24 123 11.3 29.0 0.00 0.00 0.00 45 1006.5
20260506104549 23 137 11.3 32.2 0.00 0.00 0.00 44 1006.6
20260506104035 23 104 11.3 32.2 0.00 0.00 0.00 45 1007.0
20260506103537 23 161 9.7 29.0 0.00 0.00 0.00 45 1007.0
20260506103047 24 65 9.7 29.0 0.00 0.00 0.00 44 1007.2
20260506102536 23 131 11.3 27.4 0.00 0.00 0.00 44 1007.1
20260506102039 23 178 12.9 27.4 0.00 0.00 0.00 44 1007.2
20260506101613 23 148 11.3 30.6 0.00 0.00 0.00 45 1007.3
20260506101034 23 86 11.3 30.6 0.00 0.00 0.00 44 1007.3
20260506100535 23 93 9.7 30.6 0.00 0.00 0.00 45 1007.4
20260506100051 23 111 11.3 27.4 0.00 0.00 0.00 44 1007.6
20260506095536 23 136 9.7 27.4 0.00 0.00 0.00 43 1007.6
20260506095036 23 127 8.0 27.4 0.00 0.00 0.00 45 1007.5
20260506094553 23 117 4.8 19.3 0.00 0.00 0.00 47 1007.6
20260506094036 23 110 8.0 25.7 0.00 0.00 0.00 45 1007.6
20260506093537 23 115 8.0 25.7 0.00 0.00 0.00 44 1007.6
20260506093046 24 139 4.8 17.7 0.00 0.00 0.00 43 1007.6
20260506092536 24 117 4.8 20.9 0.00 0.00 0.00 43 1007.7
20260506092036 23 153 4.8 20.9 0.00 0.00 0.00 44 1007.8
20260506091548 23 110 3.2 17.7 0.00 0.00 0.00 46 1007.8
20260506091039 23 136 8.0 19.3 0.00 0.00 0.00 46 1007.7
20260506090536 23 124 6.4 19.3 0.00 0.00 0.00 47 1007.9
20260506090100 23 98 3.2 12.9 0.00 0.00 0.00 47 1007.7
20260506085535 23 96 3.2 16.1 0.00 0.00 0.00 47 1007.8
20260506085035 22 0 4.8 16.1 0.00 0.00 0.00 49 1007.6
20260506084552 22 78 9.7 16.1 0.00 0.00 0.00 47 1007.7
20260506084037 22 103 3.2 14.5 0.00 0.00 0.00 48 1007.8
20260506083540 22 90 3.2 14.5 0.00 0.00 0.00 49 1007.8
20260506083046 22 111 4.8 12.9 0.00 0.00 0.00 47 1007.8
20260506082540 22 0 1.6 12.9 0.00 0.00 0.00 49 1007.8
20260506082036 22 139 3.2 14.5 0.00 0.00 0.00 50 1007.7
20260506081544 21 101 3.2 14.5 0.00 0.00 0.00 51 1007.9
20260506081036 22 90 4.8 12.9 0.00 0.00 0.00 50 1007.9
20260506080536 22 0 3.2 11.3 0.00 0.00 0.00 51 1007.9
20260506073048 20 112 0.0 6.4 0.00 0.00 0.00 51 1008.1
20260506072537 20 34 1.6 6.4 0.00 0.00 0.00 49 1008.0
20260506072037 20 103 1.6 6.4 0.00 0.00 0.00 50 1008.1
20260506071548 20 0 0.0 6.4 0.00 0.00 0.00 52 1008.1
20260506071039 20 202 1.6 8.0 0.00 0.00 0.00 52 1008.1
20260506070536 20 153 1.6 8.0 0.00 0.00 0.00 53 1008.2
20260506062037 18 0 0.0 9.7 0.00 0.00 0.00 59 1008.4
20260506061550 18 286 1.6 6.4 0.00 0.00 0.00 60 1008.4